Regional Weather Roundup
Issued by NWS

Home | Current Version | Previous Version | Graphics & Text | Print | Product List | Glossary On
Versions: 1 2 3 4 5 6 7 8 9 10 11 12 13 14 15 16 17 18 19 20 21 22 23 24 25 26 27 28 29 30 31 32 33 34 35 36 37 38 39 40 41 42 43 44 45 46 47 48 49 50
000
ASUS43 KLOT 281200
RWRIL

ILLINOIS REGIONAL WEATHER ROUNDUP
NATIONAL WEATHER SERVICE CHICAGO/ROMEOVILLE IL
600 AM CST SAT FEB 28 2015

NOTE: "FAIR" INDICATES FEW OR NO CLOUDS BELOW 12,000 FEET WITH NO
SIGNIFICANT WEATHER AND/OR OBSTRUCTIONS TO VISIBILITY.

* THESE STATIONS ARE NOT UNDER NWS QUALITY CONTROL. THEY ALSO MAY NOT
  REPORT WEATHER SUCH AS PRECIPITATION OR FOG.

ILZ001-002-007-009-015-016-024-281300-
NORTHWEST ILLINOIS

CITY           SKY/WX    TMP DP  RH WIND       PRES   REMARKS
MOLINE         MOCLDY   -14 -20  74 E3        30.68R
6HR MIN TEMP: -18; 6HR MAX TEMP: -13;

STERLING*      FAIR     -13 -15  92 CALM      30.67R
$$

ILZ003-004-008-010-011-017-018-281300-
NORTH CENTRAL ILLINOIS

CITY           SKY/WX    TMP DP  RH WIND       PRES   REMARKS
ROCKFORD       PTCLDY   -15 -22  70 CALM      30.69R
6HR MIN TEMP: -15; 6HR MAX TEMP:  -5;

$$

ILZ005-006-012>014-019>023-281300-
NORTHEAST ILLINOIS

CITY           SKY/WX    TMP DP  RH WIND       PRES   REMARKS
CHICAGO-OHARE  FAIR      -7 -11  83 S3        30.69R
6HR MIN TEMP: -10; 6HR MAX TEMP:   2;

CHICAGO-MIDWAY PTCLDY     2  -5  72 CALM      30.71R
6HR MIN TEMP:   1; 6HR MAX TEMP:   5;

AURORA         FAIR     -14 -22  67 CALM      30.69R
6HR MIN TEMP: -18; 6HR MAX TEMP: -10;

WAUKEGAN       NOT AVBL
DUPAGE AIRPORT PTCLDY   -12 -16  82 CALM      30.68R
6HR MIN TEMP: -13; 6HR MAX TEMP:  -1;

WHEELING       PTCLDY    -7 -13  75 CALM      30.71R
6HR MIN TEMP: -12; 6HR MAX TEMP:   3;

NORTHERLY ISL    N/A      6  -2  69 CALM        N/A
$$

LMZ740>746-281300-
SOUTHERN LAKE MICHIGAN

STATION/POSITION SKY/WX   TEMP    WIND        PRES    VSBY  WAVE
                          AIR SEA DIR/SP/G                  HT/PER
                          (F)     (DEG/KT/KT) (MB)    (MI)  (FT/S)
WAUKEGAN HARBOR             1     250/  4/  7   N/A
HARRISON CRIB               9     270/  6/  7   N/A
BURNHAM HARBOR              6      CALM  /  5   N/A
CALUMET HARBOR              3     200/  3/  5 1038.2R
MICHIGAN CITY               2     140/  5/  6   N/A
$$

ILZ025>027-034>036-040-047-049-050-058-095>099-281300-
WEST-CENTRAL ILLINOIS

CITY           SKY/WX    TMP DP  RH WIND       PRES   REMARKS
$$

ILZ028>032-037-038-041>044-048-051>054-059>061-281300-
CENTRAL ILLINOIS

CITY           SKY/WX    TMP DP  RH WIND       PRES   REMARKS
DECATUR        CLOUDY     8   2  76 E7        30.68R WCI  -3
PEORIA         CLOUDY     5  -1  76 E5        30.68S WCI  -4
6HR MIN TEMP:   2; 6HR MAX TEMP:   5;

SPRINGFIELD    MOCLDY     8   0  69 E5        30.67S WCI   0
6HR MIN TEMP:   3; 6HR MAX TEMP:   9;

TAYLORVILLE    NOT AVBL
$$

ILZ033-039-045-046-055>057-062-063-281300-
EAST-CENTRAL ILLINOIS

CITY           SKY/WX    TMP DP  RH WIND       PRES   REMARKS
CHAMPAIGN      CLOUDY     9   1  70 E8        30.68R WCI  -3
MATTOON        CLOUDY    12   1  61 E5        30.67R WCI   4
$$

ILZ079-100>102-281300-
SOUTHWEST ILLINOIS

CITY           SKY/WX    TMP DP  RH WIND       PRES   REMARKS
BELLEVILLE     CLOUDY    16   6  66 E6        30.65S WCI   7
CAHOKIA*       CLOUDY    17   7  64 E5        30.66R WCI  10
$$

ILZ064>066-069>071-074>076-080>082-084>086-088>090-092>094-281300-
SOUTH-CENTRAL ILLINOIS

CITY           SKY/WX    TMP DP  RH WIND       PRES   REMARKS
CARBONDALE     CLOUDY    18   7  62 NE6       30.65R WCI  10
6HR MIN TEMP:  18; 6HR MAX TEMP:  18;

MT. VERNON     CLOUDY    16   3  57 NE6       30.66R WCI   7
$$

ILZ067-068-072-073-078-083-087-091-281300-
SOUTHEAST ILLINOIS

CITY           SKY/WX    TMP DP  RH WIND       PRES   REMARKS
LAWRENCEVILLE  CLOUDY    15   4  61 NE7       30.69S WCI   5
$$

ABBREVIATIONS USED IN REMARKS
   TC - TEMPERATURE IN CELSIUS
  WCI - WIND CHILL INDEX
   HX - HEAT INDEX
  VSB - VISIBILITY
$$



USA.gov is the U.S. government's official web portal to all federal, state and local government web resources and services.